Terug naar catalogus

RESURS O1 DEB

ActiefPO
NORAD 23345·DEBRIS·🇷🇺 Russia

Gelanceerd Nov 4, 1994 vanaf Baikonur Cosmodrome

Loading…

Volgende Passages (komende 24 uur)

TLE

VersSource: Space-Track

Epoch: Sep 14, 2026, 08:48 UTC

1 23345U 94074D   26257.36697265  .00000509  00000-0  16330-3 0  9997
2 23345  97.8404  46.9938 0187023 267.1247 120.6963 14.33957452660530

Volg RESURS O1 DEB in realtime met AllMySat

Download on the App Store